{"data":{"norad_id":67923,"epoch":"2026-05-25T02:02:27.113856Z","epoch_age_seconds":57771,"freshness":"FRESH","line1":"1 67923U 26036V   26145.08503604  .00015124  00000+0  55781-3 0  9999","line2":"2 67923  43.0012 174.0238 0001623 272.8735  87.1931 15.27590172 15408","mean_motion":15.27590172,"eccentricity":0.0001623,"inclination_deg":43.0012,"raan_deg":174.0238,"arg_perigee_deg":272.8735,"mean_anomaly_deg":87.1931,"bstar":0.00055781,"rev_number":1540,"period_min":94.26612100513,"perigee_km":481.90507202133,"apogee_km":484.13220314129,"semimajor_km":6861.1556375813,"source":"CELESTRAK","updated_at":"2026-05-25T13:38:21.741468Z"}}